Probability
0 0 0 0 0 0 0 0 0 0 0 0 0 0 0 0 0 0 0 0 0 0 0 0 0 0 0 0 0 0 0 0 0 0 0 0 0 0
0 0 0 0 0 0 0 0 0 0 0 0 0 0 0 0 0 0 0 0 0 0 0 0 0 0 0 0 0 0 0 0 0 0 0 0 0 0
0 0 0 0 0 0 0 0 0 0 0 0 0 0 0 0 0 0 0 0 0 0 0 0 0 0 0 0 0 0 0 0 0 0 0 0 0 0
0 0 0 0 0 0 0 0 0 0 0 0 0 0 0 0 0 0 0 0 0 0 0 0 0 0 0 0 0 0 0 0 0 0 0 0 0 0
0 0 0 0 0 0 0 0 0 0 0 0 0 0 0 0 0 0 0 0 0 0 0 0 0 0 0 0 0 0 0 0 0 0 0 0 0 0
0 0 0 0 0 0 0 0 0 0 0 0 0 0 0 0 0 0 0 0 0 0 0 0 0 0 0 0 0 0 0 0 0 0 0 0 0 0
0 0 0 0 0 0 0 0 0 0 0 0 0 0 0 0 0 0 0 0 0 0 0 0 0 0 0 0 0 0 0 0 0 0 0 0 0 0
0 0 0 0 0 0 0 0 0 0 0 0 0 0 0 0 0 0 0 0 0 0 0 0 0 0 0 0 0 0 0 0 0 0 0 0 0 0
0 0 0 0 0 0 0 0 0 0 0 0 0 0 0 0 0 0 0 0 0 0 0 0 0 0 0 0 0 0 0 0 0 0 0 0 0 0
0 0 0 0 0 0 0 0 0 0 0 0 0 0 0 0 0 0 0 0 0 0 0 0 0 0 0 0 0 0 0 0 0 0 0 0 0 0
0 0 0 0 0 0 0 0 0 0 0 0 0 0 0 0 0 0 0 0 0 0 0 0 0 0 0 0 0 0 0 0 0 0 0 0 0 0
0 0 0 0 0 0 0 0 0 0 0 0 0 0 0 0 0 0 0 0 0 0 0 0 0 0 0 0 0 0 0 0 0 0 0 0 0 0
0 0 0 0 0 0 0 0 0 0 0 0 0 0 0 0 0 0 0 0 0 0 0 0 0 0 0 0 0 0 0 0 0 0 0 0 0 0
0 0 0 0 0 0 0 0 0 0 0 0 0 0 0 0 0 0 0 0 0 0 0 0 0 0 0 0 0 0 0 0 0 0 0 0 0 0
0 0 0 0 0 0 0 0 0 0 0 0 0 0 0 0 0 0 0 0 0 0 0 0 0 0 0 0 0 0 0 0 0 0 0 0 0 0
0 0 0 0 0 0 0 0 0 0 0 0 0 0 0 0 0 0 0 0 0 0 0 0 0 0 0 0 0 0 0 0 0 0 0 0 0 0
0 0 0 0 0 0 0 0 0 0 0 0 0 0 0 0 0 0 0 0 0 0 0 0 0 0 0 0 0 0 0 0 0 0 0 0 0 0
0 0 0 0 0 0 0 0 0 0 0 0 0 0 0 0 0 0 0 0 0 0 0 0 0 0 0 0 0 0 0 0 0 0 0 0 0 0
0 0 0 0 0 0 0 0 0 0 0 0 0 0 0 0 0 0 0 0 0 0 0 0 0 0 0 0 0 0 0 0 0 0 0 0 0 0
0 0 0 0 0 0 0 0 0 0 0 0 0 0 0 0 0 0 0 0 0 0 0 0 0 0 0 0 0 0 0 0 0 0 0 0 0 0
0 0 0 0 0 0 0 0 0 0 0 0 0 0 0 0 0 0 0 0 0 0 0 0 0 0 0 0 0 0 0 0 0 0 0 0 0 0
0 0 0 0 0 0 0 0 0 0 0 0 0 0 0 0 0 0 0 0 0 0 0 0 0 0 0 0 0 0 0 0 0 0 0 0 0 0
0 0 0 0 0 0 0 0 0 0 0 0 0 0 0 0 0 0 0 0 0 0 0 0 0 0 0 0 0 0 0 0 0 0 0 0 0 0
Wind_Speed
6 6 5 4 4 4 3 2 1 3 3 2 2 2 1 2 1 1 3 7 6 4 2 1 2 4 5 6 7 8 8 9 9 10 10 10 11 11
6 7 6 4 4 3 3 3 4 3 3 3 3 3 2 2 1 2 2 7 8 7 5 3 2 2 3 4 5 7 8 8 9 9 10 10 11 11
6 7 6 6 5 4 4 4 4 4 3 2 2 3 2 0 0 2 3 2 4 8 8 6 4 2 2 3 4 5 7 8 9 9 10 10 10 11
6 6 6 6 6 5 4 4 3 3 3 2 1 2 1 1 1 3 3 1 2 8 10 7 6 4 2 1 2 3 5 6 7 8 9 9 10 10
6 6 7 7 6 5 5 5 4 4 2 1 1 1 1 1 2 3 2 2 2 5 8 8 8 6 3 2 1 2 3 4 6 7 8 9 9 10
7 7 7 7 6 6 5 5 5 4 3 2 2 2 2 3 3 3 2 2 2 2 0 3 6 7 5 4 3 2 2 3 4 6 7 7 8 9
6 6 6 6 6 5 5 4 5 4 4 4 3 4 3 3 3 3 3 3 2 2 2 1 2 3 4 5 5 4 3 3 4 5 6 7 7 8
4 4 5 4 3 2 2 2 3 4 4 4 3 4 4 4 4 4 3 4 3 2 2 3 0 1 3 4 6 6 4 4 4 5 6 7 7 8
4 3 5 8 7 5 3 2 2 3 1 2 3 4 3 4 4 5 4 4 3 3 2 3 1 1 1 4 8 7 6 5 5 6 6 7 8 9
4 6 6 7 8 7 5 3 2 1 2 1 2 3 3 3 3 4 5 5 3 2 2 2 2 1 1 3 8 8 8 7 7 7 7 8 9 10
6 7 6 6 8 10 6 5 5 4 2 2 4 6 7 7 4 3 4 4 4 2 2 2 2 2 1 1 4 9 9 9 9 8 8 9 10 10
5 6 9 6 6 8 5 5 5 5 6 6 5 6 6 6 6 4 3 3 3 3 3 3 3 3 2 2 1 3 5 9 11 10 10 10 9 6
3 4 3 4 5 6 5 3 3 4 6 6 4 2 1 1 1 3 2 1 2 2 3 2 2 3 2 3 2 2 2 2 3 5 9 11 10 5
4 3 2 2 4 6 5 6 9 8 4 3 2 2 2 2 2 2 2 2 3 4 4 2 2 2 2 3 3 2 2 2 2 2 3 5 8 9
3 2 2 3 5 5 6 9 8 4 3 3 3 2 2 2 3 2 2 3 4 4 3 3 3 2 2 2 3 3 3 2 1 1 1 2 2 2
2 3 5 7 7 7 6 5 4 1 2 2 3 3 3 3 2 2 2 2 2 3 3 4 4 3 3 4 3 3 2 2 2 1 1 2 2 2
6 3 3 2 2 1 1 1 1 1 2 2 3 3 3 3 3 3 3 3 2 2 3 3 3 3 4 3 2 2 2 2 2 2 2 2 2 2
5 3 2 2 3 3 3 3 2 3 3 3 3 3 3 3 3 3 3 3 3 3 3 2 2 2 3 2 2 2 2 2 2 3 2 2 2 1
3 2 2 2 3 3 3 3 3 3 2 3 3 3 4 4 4 4 3 3 4 3 4 3 2 2 3 3 3 4 3 3 3 3 3 2 3 2
2 1 2 2 2 3 3 3 3 3 3 3 3 3 3 4 4 4 4 4 4 4 4 3 2 2 2 3 4 4 7 4 2 2 3 3 2 1
2 2 3 3 3 3 2 2 2 2 2 3 3 4 4 4 4 4 4 6 4 4 4 3 3 4 4 3 3 3 3 8 7 3 2 3 3 2
3 3 2 2 2 2 3 3 3 3 3 3 4 4 4 4 5 5 5 5 4 4 4 4 4 3 3 2 3 3 2 3 6 8 8 7 3 2
3 3 3 2 4 4 4 5 5 4 4 5 5 5 5 5 5 5 5 4 4 4 4 4 4 4 3 3 3 2 3 4 2 2 4 11 16 16
Wind_Direction
60 57 60 51 43 40 50 62 82 117 125 141 113 90 38 103 147 259 163 192 189 192 219 286 342 350 354 357 356 356 355 353 350 347 345 342 340 338
59 47 43 40 44 41 38 39 41 66 90 97 102 93 54 34 155 306 266 200 193 198 212 221 250 324 340 346 351 351 349 348 347 345 343 342 341 340
73 69 58 40 32 31 36 47 43 51 75 80 101 129 130 36 298 288 275 201 181 197 207 211 216 241 306 343 352 352 352 351 349 346 345 344 341 341
69 65 61 58 47 31 30 47 49 49 62 70 91 122 147 189 258 284 303 27 187 195 203 208 211 215 223 308 349 354 352 348 347 345 344 343 342 341
69 65 58 51 42 29 35 31 29 36 29 34 65 72 66 10 331 320 341 330 314 172 196 210 215 209 201 211 279 319 336 341 342 341 340 339 339 339
68 63 57 51 36 12 40 28 23 8 1 12 41 44 41 12 10 346 351 346 338 16 317 191 197 197 190 194 214 248 296 323 332 334 333 333 333 333
88 90 85 78 61 38 42 25 19 12 14 19 31 35 30 16 6 340 353 338 339 24 348 324 159 178 187 193 203 225 251 289 314 322 324 323 321 320
84 101 121 103 89 67 36 24 29 29 23 12 27 26 28 18 355 347 357 352 338 345 344 321 40 180 186 179 190 205 233 269 294 306 312 314 313 312
63 51 71 68 44 20 351 277 242 234 251 11 12 7 11 16 357 345 340 328 302 293 322 316 331 311 202 150 184 207 230 255 276 288 296 303 307 309
73 63 67 60 32 8 346 7 48 154 206 221 356 341 356 354 341 322 311 315 310 309 331 310 317 317 109 164 203 217 233 247 261 272 283 294 302 307
79 57 60 67 30 11 1 14 27 22 22 300 287 286 291 289 290 318 324 342 337 337 357 336 327 317 275 196 207 218 236 246 255 262 272 284 297 309
100 89 67 57 32 20 8 9 18 360 345 329 297 272 261 262 245 230 283 326 333 338 353 348 338 344 331 295 246 207 234 245 247 253 261 271 285 304
102 101 81 46 24 5 348 351 352 320 305 300 298 303 296 272 212 217 234 289 324 316 319 350 333 337 318 298 287 258 225 225 217 234 242 251 261 268
64 76 93 15 342 326 323 322 324 319 291 303 338 355 359 354 329 307 287 272 250 248 254 262 276 298 312 315 306 301 289 257 224 220 217 224 244 247
36 11 308 281 300 284 264 290 308 309 333 356 350 337 320 303 293 293 284 276 278 278 256 226 238 270 284 284 292 303 306 300 283 267 244 221 218 209
327 273 266 267 269 283 287 259 252 283 349 327 320 319 314 313 310 307 304 294 293 291 282 258 241 248 263 280 285 295 302 302 306 294 281 259 233 202
331 296 259 267 257 263 308 344 327 21 12 341 333 329 326 327 323 321 313 310 314 306 299 289 268 254 249 248 278 291 300 315 319 309 297 292 261 210
339 320 346 1 5 7 357 358 21 38 13 337 327 328 328 328 328 325 327 331 328 320 312 308 328 333 323 314 238 273 300 311 306 303 307 307 292 239
308 305 20 20 5 0 360 7 11 11 345 320 330 335 336 333 330 330 331 333 328 320 313 313 328 346 340 329 291 233 244 281 295 305 307 304 288 253
255 4 31 23 18 8 4 8 354 341 346 340 338 336 333 330 328 327 322 322 316 306 306 311 317 313 285 277 281 270 216 233 271 294 306 305 309 23
36 29 30 28 18 357 349 348 333 325 342 327 331 338 332 329 327 323 317 318 310 301 315 308 289 280 257 266 280 280 240 219 229 233 272 298 303 291
32 19 12 10 16 354 356 359 349 344 353 354 355 346 336 330 325 320 316 317 318 322 318 306 303 302 289 295 302 306 305 276 233 236 245 240 240 264
48 2 334 20 35 21 19 353 344 2 17 10 355 342 330 322 313 309 313 319 325 329 327 321 319 316 315 315 315 322 332 319 291 243 250 242 240 249